Terminal Aerodrome Forecast
Issued by NWS

Home | Current Version | Previous Version | Text Only | Print | Product List | Glossary On
Versions: 1 2 3 4 5 6 7 8 9 10 11 12 13 14 15 16
000
FTUS43 KMPX 301700
TAFRNH
TAF
KRNH 301724Z 3018/0118 11010KT P6SM SCT020 BKN250
     FM302200 12012KT P6SM SCT025 BKN050
     FM010200 12008KT P6SM VCSH SCT020 OVC035
     FM010900 13010KT 6SM -SHRA BR BKN007 OVC012
     FM011200 13008KT 3SM -DZ BR OVC007=

USA.gov is the U.S. government's official web portal to all federal, state and local government web resources and services.